Regional Weather Roundup
Issued by NWS

Home | Current Version | Previous Version | Text Only | Print | Product List | Glossary Off
Versions: 1 2 3 4 5 6 7 8 9 10 11 12 13 14 15 16 17 18 19 20 21 22 23 24 25 26 27 28 29 30 31 32 33 34 35 36 37 38 39 40 41 42 43 44 45 46 47 48 49 50

000
ASUS45 KBOU 030407
RWRCO

WEATHER ROUNDUP FOR COLORADO
NATIONAL WEATHER SERVICE DENVER/BOULDER CO
1000 PM MDT TUE SEP 02 2014

NOTE: "FAIR" INDICATES FEW OR NO CLOUDS BELOW 12000 FEET WITH NO
SIGNIFICANT WEATHER AND/OR OBSTRUCTIONS TO VISIBILITY.

COZ001>005-013-030-031-030500-
...NORTHWEST COLORADO...

CITY           SKY/WX    TMP DP  RH WIND       PRES   REMARKS
CRAIG          CLEAR     55  44  66 CALM      30.04S
HAYDEN         CLEAR     64  36  34 CALM      30.08R
MEEKER         PTCLDY    59  41  51 CALM      30.08R
MOUNT WERNER   NOT AVBL
STEAMBOAT SPGS CLEAR     60  40  48 E5        30.10S
WALDEN         CLEAR     55  32  41 S9        30.20R
$$

COZ006>008-011-030500-
...WEST CENTRAL VALLEYS...

CITY           SKY/WX    TMP DP  RH WIND       PRES   REMARKS
GRAND JUNCTION CLEAR     70  39  32 E7        29.93R
MONTROSE       PTCLDY    69  42  37 SE8       30.05R
EAGLE          PTCLDY    63  37  39 E7        30.12S
RIFLE          CLEAR     65  38  36 E6        30.01R
DELTA          NOT AVBL
NUCLA          CLEAR     73  30  20 SE3       30.08R
$$

COZ017>023-064>068-030500-
...SOUTHWEST COLORADO...

CITY           SKY/WX    TMP DP  RH WIND       PRES   REMARKS
DURANGO        CLEAR     64  35  34 N5        30.12S
CORTEZ         CLEAR     62  39  42 E9        30.07R
PAGOSA SPRINGS CLEAR     60  28  29 N3        30.22S
TELLURIDE      CLEAR     59  30  33 SE7       30.33S
WOLF CREEK PAS CLEAR     50  27  40 SW15G23   30.55R
$$

COZ009-010-012-014-032>034-037-058>063-030500-
...CENTRAL COLORADO...

CITY           SKY/WX    TMP DP  RH WIND       PRES   REMARKS
ASPEN          PTCLDY    57  35  43 SW10      30.21R
BUENA VISTA    PTCLDY    64  27  25 NW6       30.21R
COPPER MTN     CLEAR     54  28  37 W8        30.54R
BERTHOUD PASS  FAIR      43  43 100 NW15      30.56S
COTTONWOOD PAS PTCLDY    63  23  22 W3        30.37S
GUNNISON       CLEAR     57  34  41 CALM      30.22S
KREMMLING      PTCLDY    55  32  41 CALM      30.17S
LEADVILLE      CLEAR     45  32  60 N5        30.36S
MONARCH PASS   MOCLDY    52  27  37 W15       30.64S
SALIDA         MOCLDY    68  33  26 W9        30.24S
SUNLIGHT       PTCLDY    52  32  46 CALM      30.44S
WILKERSON PASS NOT AVBL
$$

COZ069>075-030500-
...SAN LUIS VALLEY/SANGRE DE CRISTO MOUNTAINS...

CITY           SKY/WX    TMP DP  RH WIND       PRES   REMARKS
ALAMOSA        MOCLDY    62  32  32 W9        30.18R
LA VETA PASS   NOT AVBL
SAGUACHE       PTCLDY    59  37  44 N7        30.22R
$$

COZ035-036-038>040-030500-
...NORTHERN COLORADO FRONT RANGE...

CITY           SKY/WX    TMP DP  RH WIND       PRES   REMARKS
DENVER INTL AP PTCLDY    66  52  60 S12       29.99S
DMNS CITY PARK   N/A     72  50  45 S5        29.98S
AURORA         PTCLDY    70  48  45 S9        30.01F
FRONT RANGE AP CLEAR     72  50  46 S10       30.01S
ERIE MUNI ARPT CLEAR     66  50  56 CALM      29.96S
BOULDER MUN AP CLEAR     68  43  40 S5        29.97S
CENTENNIAL     PTCLDY    70  47  43 S14       30.02S
BROOMFIELD     NOT AVBL
FORT COLLINS   CLEAR     70  46  43 N3        29.96S
LONGMONT       CLEAR     65  49  58 CALM      29.97F
$$

COZ041-046-047-076>085-087-088-030500-
...PIKES PEAK/PALMER DIVIDE AND SOUTHERN FOOTHILLS...

CITY           SKY/WX    TMP DP  RH WIND       PRES   REMARKS
COLO. SPRINGS  PTCLDY    68  49  50 E9        30.09S
A. F. ACADEMY  CLEAR     66  46  49 SE6       30.11S
ELLICOTT       NOT AVBL
FALCON         CLEAR     63  48  59 SE5       30.14F
FORT CARSON    CLEAR     69  49  48 N3        30.05F
LIMON          CLEAR     64  53  67 SE7       30.04S
MONUMENT HILL  CLEAR     63  46  55 S12       30.13S
TRINIDAD       CLEAR     77  50  38 S10G24    30.04R
$$

COZ042>045-048>051-090-091-030500-
...NORTHEAST COLORADO...

CITY           SKY/WX    TMP DP  RH WIND       PRES   REMARKS
GREELEY ARPT   CLEAR     72  52  49 SW9       29.94S
AKRON          CLEAR     70  53  54 S17G25    29.95F
BURLINGTON     CLEAR     68  60  75 S14       29.98R
WRAY             N/A     73  58  59 S12G22    29.92R
STERLING       CLEAR     70  59  68 SW8       29.88F
HOLYOKE        CLEAR     66  55  68 S8        29.91S
FORT MORGAN    CLEAR     67  51  57 S6        29.94S
$$

COZ086-089-092>099-030500-
...SOUTHEAST COLORADO...

CITY           SKY/WX    TMP DP  RH WIND       PRES   REMARKS
PUEBLO         CLEAR     76  56  49 E10       29.93S
LA JUNTA       CLEAR     77  59  53 SE9       29.94R
LAMAR          CLEAR     75  61  61 SE12      29.92S
SPRINGFIELD      N/A     68  61  78 S8        30.01S
$$



USA.gov is the U.S. government's official web portal to all federal, state and local government web resources and services.